Time,TemperatureF,DewpointF,PressureIn,WindDirection,WindDirectionDegrees,WindSpeedMPH,WindSpeedGustMPH,Humidity,HourlyPrecipIn,Conditions,Clouds,dailyrainin,SoftwareType,DateUTC
2013-07-30 00:03:00,82.0,71.0,29.66,SE,127,3.0,-999.0,70,0.00,,,0.00,,2013-07-30 05:03:00,
2013-07-30 00:12:00,81.0,71.0,29.66,SSE,165,2.0,-999.0,71,0.00,,,0.00,,2013-07-30 05:12:00,
2013-07-30 00:23:00,81.0,-99.9,-100.00,SSE,159,1.0,-999.0,-999,-99.99,,,-99.99,,2013-07-30 05:23:00,
2013-07-30 00:32:00,81.0,72.0,29.67,South,186,3.0,-999.0,73,0.00,,,0.00,,2013-07-30 05:32:00,
2013-07-30 00:45:00,80.0,71.0,29.67,SSE,151,0.0,-999.0,74,0.00,,,0.00,,2013-07-30 05:45:00,
2013-07-30 00:52:00,80.0,71.0,29.67,SSE,162,2.0,-999.0,75,0.00,,,0.00,,2013-07-30 05:52:00,
2013-07-30 01:02:00,80.0,72.0,29.67,South,169,1.0,-999.0,76,0.00,,,0.00,,2013-07-30 06:02:00,
2013-07-30 01:12:00,80.0,72.0,29.67,NW,321,0.0,-999.0,76,0.00,,,0.00,,2013-07-30 06:12:00,
2013-07-30 01:22:00,79.0,71.0,29.67,SSE,166,2.0,-999.0,77,0.00,,,0.00,,2013-07-30 06:22:00,
2013-07-30 01:32:00,79.0,71.0,29.68,SSE,155,1.0,-999.0,77,0.00,,,0.00,,2013-07-30 06:32:00,
2013-07-30 01:43:00,79.0,72.0,29.68,SE,145,1.0,-999.0,78,0.00,,,0.00,,2013-07-30 06:43:00,
2013-07-30 01:52:00,79.0,72.0,29.68,SSE,155,1.0,-999.0,79,0.00,,,0.00,,2013-07-30 06:52:00,
2013-07-30 02:03:00,78.0,-99.9,-100.00,SW,219,1.0,-999.0,-999,-99.99,,,-99.99,,2013-07-30 07:03:00,
2013-07-30 02:13:00,78.0,71.0,29.68,SW,219,1.0,-999.0,80,0.00,,,0.00,,2013-07-30 07:13:00,
2013-07-30 02:23:00,78.0,72.0,29.68,ESE,104,1.0,-999.0,81,0.00,,,0.00,,2013-07-30 07:23:00,
2013-07-30 02:33:00,78.0,72.0,29.68,South,188,3.0,-999.0,81,0.00,,,0.00,,2013-07-30 07:33:00,
2013-07-30 02:43:00,78.0,72.0,29.68,South,169,0.0,-999.0,82,0.00,,,0.00,,2013-07-30 07:43:00,
2013-07-30 02:53:00,78.0,72.0,29.68,South,169,0.0,-999.0,82,0.00,,,0.00,,2013-07-30 07:53:00,
2013-07-30 03:03:00,78.0,72.0,29.68,South,169,5.0,-999.0,82,0.00,,,0.00,,2013-07-30 08:03:00,
2013-07-30 03:12:00,78.0,72.0,29.68,ESE,120,0.0,-999.0,83,0.00,,,0.00,,2013-07-30 08:12:00,
2013-07-30 03:22:00,78.0,72.0,29.68,SSE,153,4.0,-999.0,83,0.00,,,0.00,,2013-07-30 08:22:00,
2013-07-30 03:33:00,78.0,72.0,29.68,SSE,153,4.0,-999.0,83,0.00,,,0.00,,2013-07-30 08:33:00,
2013-07-30 03:43:00,77.0,71.0,29.68,SSE,155,3.0,-999.0,83,0.00,,,0.00,,2013-07-30 08:43:00,
2013-07-30 03:52:00,77.0,71.0,29.69,South,173,0.0,-999.0,83,0.00,,,0.00,,2013-07-30 08:52:00,
2013-07-30 04:03:00,77.0,-99.9,29.69,SSW,192,4.0,-999.0,-999,0.00,,,0.00,,2013-07-30 09:03:00,
2013-07-30 04:12:00,77.0,71.0,29.69,SSE,149,1.0,-999.0,83,0.00,,,0.00,,2013-07-30 09:12:00,
2013-07-30 04:22:00,77.0,71.0,29.69,SSE,165,2.0,-999.0,83,0.00,,,0.00,,2013-07-30 09:22:00,
2013-07-30 04:33:00,78.0,-99.9,-100.00,SSE,155,1.0,-999.0,-999,-99.99,,,-99.99,,2013-07-30 09:33:00,
2013-07-30 04:43:00,78.0,72.0,29.68,SSE,155,1.0,-999.0,83,0.00,,,0.00,,2013-07-30 09:43:00,
2013-07-30 04:53:00,77.0,71.0,29.69,South,180,2.0,-999.0,83,0.00,,,0.00,,2013-07-30 09:53:00,
2013-07-30 05:02:00,77.0,71.0,29.69,SW,226,3.0,-999.0,83,0.00,,,0.00,,2013-07-30 10:02:00,
2013-07-30 05:12:00,77.0,71.0,29.70,SSW,192,1.0,-999.0,83,0.00,,,0.00,,2013-07-30 10:12:00,
2013-07-30 05:43:00,77.0,71.0,29.70,SSE,168,2.0,-999.0,83,0.00,,,0.00,,2013-07-30 10:43:00,
2013-07-30 05:52:00,77.0,71.0,29.70,SSE,168,2.0,-999.0,83,0.00,,,0.00,,2013-07-30 10:52:00,
2013-07-30 06:02:00,77.0,71.0,29.71,SSW,210,5.0,-999.0,83,0.00,,,0.00,,2013-07-30 11:02:00,
2013-07-30 06:11:00,77.0,71.0,29.71,SSW,208,0.0,-999.0,83,0.00,,,0.00,,2013-07-30 11:11:00,
2013-07-30 06:22:00,77.0,72.0,29.71,South,174,1.0,-999.0,84,0.00,,,0.00,,2013-07-30 11:22:00,
2013-07-30 06:33:00,77.0,72.0,29.71,South,179,3.0,-999.0,84,0.00,,,0.00,,2013-07-30 11:33:00,
2013-07-30 06:43:00,77.0,72.0,29.72,SW,215,2.0,-999.0,85,0.00,,,0.00,,2013-07-30 11:43:00,
2013-07-30 07:12:00,76.0,72.0,29.73,SW,215,0.0,-999.0,86,0.00,,,0.00,,2013-07-30 12:12:00,
2013-07-30 07:22:00,76.0,72.0,29.73,SW,217,0.0,-999.0,86,0.00,,,0.00,,2013-07-30 12:22:00,
2013-07-30 07:33:00,76.0,72.0,29.73,SW,217,0.0,-999.0,86,0.00,,,0.00,,2013-07-30 12:33:00,
2013-07-30 07:42:00,76.0,72.0,29.73,South,184,0.0,-999.0,86,0.00,,,0.00,,2013-07-30 12:42:00,
2013-07-30 08:02:00,77.0,72.0,29.74,South,184,0.0,-999.0,86,0.00,,,0.00,,2013-07-30 13:02:00,
2013-07-30 08:12:00,78.0,-99.9,-100.00,South,177,2.0,-999.0,-999,0.00,,,-99.99,,2013-07-30 13:12:00,
2013-07-30 08:32:00,78.0,72.0,29.74,SW,223,4.0,-999.0,83,0.00,,,0.00,,2013-07-30 13:32:00,
2013-07-30 08:42:00,78.0,73.0,29.73,SSW,207,1.0,-999.0,84,0.00,,,0.00,,2013-07-30 13:42:00,
2013-07-30 09:02:00,78.0,72.0,29.73,WSW,238,3.0,-999.0,83,0.00,,,0.00,,2013-07-30 14:02:00,
2013-07-30 09:12:00,79.0,73.0,29.74,East,101,5.0,-999.0,82,0.00,,,0.00,,2013-07-30 14:12:00,
2013-07-30 09:33:00,79.0,72.0,29.75,SW,227,0.0,-999.0,80,0.00,,,0.00,,2013-07-30 14:33:00,
2013-07-30 09:43:00,80.0,72.0,29.75,ESE,116,1.0,-999.0,78,0.00,,,0.00,,2013-07-30 14:43:00,
2013-07-30 09:53:00,81.0,73.0,29.75,SSW,197,1.0,-999.0,76,0.00,,,0.00,,2013-07-30 14:53:00,
2013-07-30 10:02:00,82.0,73.0,29.74,South,181,2.0,-999.0,74,0.00,,,0.00,,2013-07-30 15:02:00,
2013-07-30 10:12:00,82.0,73.0,29.74,South,181,2.0,-999.0,74,0.00,,,0.00,,2013-07-30 15:12:00,
2013-07-30 10:23:00,83.0,73.0,29.74,SSE,164,3.0,-999.0,71,0.00,,,0.00,,2013-07-30 15:23:00,
2013-07-30 10:33:00,84.0,73.0,29.74,South,190,0.0,-999.0,70,0.00,,,0.00,,2013-07-30 15:33:00,
2013-07-30 10:43:00,85.0,73.0,29.74,South,178,3.0,-999.0,68,0.00,,,0.00,,2013-07-30 15:43:00,
2013-07-30 10:52:00,86.0,73.0,29.73,SSW,210,5.0,-999.0,66,0.00,,,0.00,,2013-07-30 15:52:00,
2013-07-30 11:02:00,86.0,72.0,29.73,SSW,202,4.0,-999.0,63,0.00,,,0.00,,2013-07-30 16:02:00,
2013-07-30 11:12:00,87.0,73.0,29.74,SSW,211,7.0,-999.0,64,0.00,,,0.00,,2013-07-30 16:12:00,
2013-07-30 11:22:00,86.0,71.0,29.74,ESE,113,4.0,-999.0,62,0.00,,,0.00,,2013-07-30 16:22:00,
2013-07-30 11:33:00,86.0,72.0,29.73,WSW,238,1.0,-999.0,63,0.00,,,0.00,,2013-07-30 16:33:00,
2013-07-30 11:43:00,87.0,72.0,29.73,SW,232,1.0,-999.0,61,0.00,,,0.00,,2013-07-30 16:43:00,
2013-07-30 11:52:00,88.0,73.0,29.73,SSW,211,0.0,-999.0,61,0.00,,,0.00,,2013-07-30 16:52:00,
2013-07-30 12:02:00,89.0,73.0,29.73,SW,223,4.0,-999.0,59,0.00,,,0.00,,2013-07-30 17:02:00,
2013-07-30 12:12:00,89.0,72.0,29.73,ESE,123,1.0,-999.0,58,0.00,,,0.00,,2013-07-30 17:12:00,
2013-07-30 12:22:00,89.0,72.0,29.73,ESE,120,2.0,-999.0,58,0.00,,,0.00,,2013-07-30 17:22:00,
2013-07-30 12:32:00,89.0,73.0,29.72,SSW,197,0.0,-999.0,59,0.00,,,0.00,,2013-07-30 17:32:00,
2013-07-30 12:43:00,89.0,72.0,29.72,SSE,151,2.0,-999.0,57,0.00,,,0.00,,2013-07-30 17:43:00,
2013-07-30 12:53:00,90.0,73.0,29.72,South,182,2.0,-999.0,57,0.00,,,0.00,,2013-07-30 17:53:00,
2013-07-30 13:03:00,90.0,71.0,29.72,South,184,1.0,-999.0,54,0.00,,,0.00,,2013-07-30 18:03:00,
2013-07-30 13:12:00,91.0,71.0,29.72,SSW,196,3.0,-999.0,53,0.00,,,0.00,,2013-07-30 18:12:00,
2013-07-30 13:23:00,91.0,72.0,29.71,ESE,117,1.0,-999.0,54,0.00,,,0.00,,2013-07-30 18:23:00,
2013-07-30 13:32:00,92.0,72.0,29.71,ESE,117,12.0,-999.0,52,0.00,,,0.00,,2013-07-30 18:32:00,
2013-07-30 13:42:00,91.0,71.0,29.71,SE,134,1.0,-999.0,52,0.00,,,0.00,,2013-07-30 18:42:00,
2013-07-30 13:52:00,92.0,71.0,29.71,SE,137,0.0,-999.0,51,0.00,,,0.00,,2013-07-30 18:52:00,
2013-07-30 14:02:00,92.0,72.0,29.70,East,92,3.0,-999.0,52,0.00,,,0.00,,2013-07-30 19:02:00,
2013-07-30 14:12:00,92.0,71.0,29.69,SSE,148,5.0,-999.0,51,0.00,,,0.00,,2013-07-30 19:12:00,
2013-07-30 14:22:00,92.0,71.0,29.69,South,181,0.0,-999.0,51,0.00,,,0.00,,2013-07-30 19:22:00,
2013-07-30 14:33:00,91.0,70.0,29.68,South,182,2.0,-999.0,51,0.00,,,0.00,,2013-07-30 19:33:00,
2013-07-30 14:44:00,92.0,69.0,29.68,SSW,199,1.0,-999.0,48,0.00,,,0.00,,2013-07-30 19:44:00,
2013-07-30 14:52:00,93.0,72.0,29.67,SSE,167,3.0,-999.0,50,0.00,,,0.00,,2013-07-30 19:52:00,
2013-07-30 15:02:00,94.0,71.0,29.67,SE,139,2.0,-999.0,47,0.00,,,0.00,,2013-07-30 20:02:00,
2013-07-30 15:12:00,94.0,70.0,29.67,South,188,3.0,-999.0,46,0.00,,,0.00,,2013-07-30 20:12:00,
2013-07-30 15:22:00,95.0,70.0,29.67,SSW,194,1.0,-999.0,44,0.00,,,0.00,,2013-07-30 20:22:00,
2013-07-30 15:32:00,95.0,70.0,29.66,SSW,201,2.0,-999.0,44,0.00,,,0.00,,2013-07-30 20:32:00,
2013-07-30 15:43:00,95.0,70.0,29.66,SE,144,0.0,-999.0,44,0.00,,,0.00,,2013-07-30 20:43:00,
2013-07-30 15:52:00,95.0,68.0,29.65,SSE,161,2.0,-999.0,42,0.00,,,0.00,,2013-07-30 20:52:00,
2013-07-30 16:02:00,95.0,68.0,29.65,SSW,200,5.0,-999.0,41,0.00,,,0.00,,2013-07-30 21:02:00,
2013-07-30 16:12:00,96.0,68.0,29.65,SE,133,2.0,-999.0,41,0.00,,,0.00,,2013-07-30 21:12:00,
2013-07-30 16:22:00,96.0,68.0,29.65,East,80,2.0,-999.0,40,0.00,,,0.00,,2013-07-30 21:22:00,
2013-07-30 16:32:00,96.0,67.0,29.64,ENE,61,4.0,-999.0,39,0.00,,,0.00,,2013-07-30 21:32:00,
2013-07-30 16:42:00,96.0,66.0,29.64,SSW,194,0.0,-999.0,38,0.00,,,0.00,,2013-07-30 21:42:00,
2013-07-30 16:52:00,95.0,67.0,29.64,SE,138,1.0,-999.0,40,0.00,,,0.00,,2013-07-30 21:52:00,
2013-07-30 17:02:00,94.0,66.0,29.63,SSW,211,0.0,-999.0,40,0.00,,,0.00,,2013-07-30 22:02:00,
2013-07-30 17:12:00,94.0,66.0,29.63,SW,225,0.0,-999.0,40,0.00,,,0.00,,2013-07-30 22:12:00,
2013-07-30 17:22:00,94.0,66.0,29.63,South,184,0.0,-999.0,40,0.00,,,0.00,,2013-07-30 22:22:00,
2013-07-30 17:32:00,94.0,67.0,29.63,SSW,213,1.0,-999.0,41,0.00,,,0.00,,2013-07-30 22:32:00,
2013-07-30 17:43:00,94.0,68.0,29.62,East,94,2.0,-999.0,43,0.00,,,0.00,,2013-07-30 22:43:00,
2013-07-30 17:52:00,95.0,69.0,29.62,South,181,1.0,-999.0,43,0.00,,,0.00,,2013-07-30 22:52:00,
2013-07-30 18:02:00,96.0,69.0,29.62,ESE,116,1.0,-999.0,42,0.00,,,0.00,,2013-07-30 23:02:00,
2013-07-30 18:12:00,95.0,68.0,29.62,South,173,0.0,-999.0,42,0.00,,,0.00,,2013-07-30 23:12:00,
2013-07-30 18:22:00,95.0,68.0,29.62,SE,126,0.0,-999.0,41,0.00,,,0.00,,2013-07-30 23:22:00,
2013-07-30 18:32:00,95.0,67.0,29.62,ESE,102,1.0,-999.0,40,0.00,,,0.00,,2013-07-30 23:32:00,
2013-07-30 18:42:00,95.0,68.0,29.62,SE,141,1.0,-999.0,41,0.00,,,0.00,,2013-07-30 23:42:00,
2013-07-30 18:53:00,95.0,66.0,29.62,SE,146,2.0,-999.0,39,0.00,,,0.00,,2013-07-30 23:53:00,
2013-07-30 19:02:00,95.0,67.0,29.62,South,187,3.0,-999.0,40,0.00,,,0.00,,2013-07-31 00:02:00,
2013-07-30 19:12:00,95.0,66.0,29.62,South,180,1.0,-999.0,39,0.00,,,0.00,,2013-07-31 00:12:00,
2013-07-30 19:22:00,95.0,68.0,29.62,ESE,123,0.0,-999.0,41,0.00,,,0.00,,2013-07-31 00:22:00,
2013-07-30 19:32:00,94.0,67.0,29.62,South,173,0.0,-999.0,42,0.00,,,0.00,,2013-07-31 00:32:00,
2013-07-30 19:43:00,94.0,67.0,29.62,SSE,159,0.0,-999.0,42,0.00,,,0.00,,2013-07-31 00:43:00,
2013-07-30 19:53:00,93.0,66.0,29.61,SE,128,0.0,-999.0,41,0.00,,,0.00,,2013-07-31 00:53:00,
2013-07-30 20:02:00,93.0,66.0,29.62,SE,132,0.0,-999.0,41,0.00,,,0.00,,2013-07-31 01:02:00,
2013-07-30 20:12:00,93.0,66.0,29.62,SE,138,1.0,-999.0,42,0.00,,,0.00,,2013-07-31 01:12:00,
2013-07-30 20:22:00,92.0,66.0,29.62,SE,138,0.0,-999.0,42,0.00,,,0.00,,2013-07-31 01:22:00,
2013-07-30 20:32:00,92.0,66.0,29.62,SE,138,0.0,-999.0,43,0.00,,,0.00,,2013-07-31 01:32:00,
2013-07-30 20:42:00,91.0,65.0,29.62,SE,138,0.0,-999.0,43,0.00,,,0.00,,2013-07-31 01:42:00,
2013-07-30 20:52:00,91.0,65.0,29.62,SSE,160,0.0,-999.0,43,0.00,,,0.00,,2013-07-31 01:52:00,
2013-07-30 21:02:00,91.0,66.0,29.62,SSE,153,1.0,-999.0,44,0.00,,,0.00,,2013-07-31 02:02:00,
2013-07-30 21:12:00,90.0,66.0,29.62,ENE,75,3.0,-999.0,46,0.00,,,0.00,,2013-07-31 02:12:00,
2013-07-30 21:22:00,90.0,67.0,29.63,ESE,118,1.0,-999.0,47,0.00,,,0.00,,2013-07-31 02:22:00,
2013-07-30 21:32:00,90.0,67.0,29.63,ESE,118,1.0,-999.0,47,0.00,,,0.00,,2013-07-31 02:32:00,
2013-07-30 21:42:00,90.0,68.0,29.64,SSE,155,0.0,-999.0,49,0.00,,,0.00,,2013-07-31 02:42:00,
2013-07-30 21:52:00,89.0,68.0,29.65,South,173,0.0,-999.0,50,0.00,,,0.00,,2013-07-31 02:52:00,
2013-07-30 22:02:00,89.0,68.0,29.65,South,182,3.0,-999.0,50,0.00,,,0.00,,2013-07-31 03:02:00,
2013-07-30 22:12:00,88.0,68.0,29.66,SSE,163,1.0,-999.0,51,0.00,,,0.00,,2013-07-31 03:12:00,
2013-07-30 22:22:00,88.0,68.0,29.66,SSE,161,0.0,-999.0,51,0.00,,,0.00,,2013-07-31 03:22:00,
2013-07-30 22:32:00,87.0,67.0,29.67,South,180,0.0,-999.0,52,0.00,,,0.00,,2013-07-31 03:32:00,
2013-07-30 22:42:00,87.0,67.0,29.67,South,180,0.0,-999.0,52,0.00,,,0.00,,2013-07-31 03:42:00,
2013-07-30 22:52:00,86.0,-99.9,-100.00,SSW,200,1.0,-999.0,-999,-99.99,,,-99.99,,2013-07-31 03:52:00,
2013-07-30 23:02:00,86.0,67.0,29.68,SE,134,0.0,-999.0,53,0.00,,,0.00,,2013-07-31 04:02:00,
2013-07-30 23:12:00,85.0,66.0,29.69,SSE,157,2.0,-999.0,53,0.00,,,0.00,,2013-07-31 04:12:00,
2013-07-30 23:22:00,85.0,-99.9,-100.00,SSE,157,2.0,-999.0,-999,0.00,,,-99.99,,2013-07-31 04:22:00,
2013-07-30 23:32:00,85.0,-99.9,-100.00,SSE,157,2.0,-999.0,-999,0.00,,,-99.99,,2013-07-31 04:32:00,
2013-07-30 23:42:00,85.0,-99.9,-100.00,SSE,157,2.0,-999.0,-999,0.00,,,-99.99,,2013-07-31 04:42:00,
2013-07-30 23:52:00,85.0,66.0,29.69,NE,52,3.0,-999.0,54,0.00,,,0.00,,2013-07-31 04:52:00,